ITY2050 LIRF-LIML

Flight info

Callsign ITY2050
Flight time 0h 56m
Altitude 34000
Route GILIO DCT KARDU DCT EMBOS DCT GIPIX DCT KALMO
Aircraft A20N/M-SDE2E3FGHIRWXY/LB1

Departure

Time 2026-02-17 14:35
Airport Rome–Fiumicino Leonardo da Vinci International Airport (LIRF)

Arrival

Time 2026-02-17 15:32
Airport Milano Linate Airport (LIML)
Time Latitude Longitude Altitude Speed Heading
2026-02-17 14:12 41.79632 12.25791 14 ft 0 kts 115°
2026-02-17 14:12 41.79632 12.25790 14 ft 0 kts 115°
2026-02-17 14:20 41.79632 12.25789 14 ft 0 kts 115°
2026-02-17 14:21 41.79633 12.25789 14 ft 0 kts 115°
2026-02-17 14:24 41.79633 12.25788 14 ft 1 kts 115°
2026-02-17 14:24 41.79639 12.25771 16 ft 3 kts 115°
2026-02-17 14:24 41.79648 12.25747 16 ft 3 kts 115°
2026-02-17 14:24 41.79654 12.25732 17 ft 3 kts 41°
2026-02-17 14:25 41.79644 12.25723 16 ft 2 kts 25°
2026-02-17 14:25 41.79630 12.25714 17 ft 2 kts 25°
2026-02-17 14:25 41.79627 12.25712 17 ft 0 kts 25°
2026-02-17 14:28 41.79631 12.25714 17 ft 2 kts 25°
2026-02-17 14:28 41.79665 12.25736 15 ft 9 kts 25°
2026-02-17 14:28 41.79738 12.25782 14 ft 14 kts 25°
2026-02-17 14:29 41.79802 12.25822 15 ft 8 kts 25°
2026-02-17 14:29 41.79845 12.25827 14 ft 7 kts 344°
2026-02-17 14:29 41.79898 12.25839 14 ft 10 kts 23°
2026-02-17 14:29 41.79973 12.25884 14 ft 13 kts 24°
2026-02-17 14:30 41.80066 12.25941 14 ft 16 kts 26°
2026-02-17 14:30 41.80169 12.26006 15 ft 17 kts 24°
2026-02-17 14:31 41.80486 12.26177 16 ft 8 kts
2026-02-17 14:31 41.80528 12.26237 16 ft 11 kts 69°
2026-02-17 14:31 41.80559 12.26349 16 ft 15 kts 70°
2026-02-17 14:31 41.80600 12.26505 15 ft 20 kts 71°
2026-02-17 14:32 41.80654 12.26693 15 ft 23 kts 70°
2026-02-17 14:32 41.80706 12.26885 13 ft 15 kts 70°
2026-02-17 14:32 41.80744 12.27013 13 ft 12 kts 56°
2026-02-17 14:32 41.80823 12.27033 15 ft 13 kts 343°
2026-02-17 14:33 41.80876 12.27008 13 ft 0 kts 340°
2026-02-17 14:33 41.80885 12.27004 13 ft 4 kts 340°
2026-02-17 14:33 41.80938 12.26979 13 ft 11 kts 340°
2026-02-17 14:34 41.80954 12.26915 12 ft 6 kts 256°
2026-02-17 14:34 41.80951 12.26903 12 ft 0 kts 250°
2026-02-17 14:34 41.80919 12.26787 13 ft 43 kts 250°
2026-02-17 14:35 41.80448 12.25086 146 ft 132 kts 253°
2026-02-17 14:35 41.80095 12.23915 581 ft 138 kts 253°
2026-02-17 14:35 41.79737 12.22708 1044 ft 143 kts 255°
2026-02-17 14:35 41.79397 12.21440 1536 ft 143 kts 262°
2026-02-17 14:36 41.79261 12.20098 1958 ft 154 kts 272°
2026-02-17 14:36 41.79227 12.18577 2255 ft 173 kts 274°
2026-02-17 14:36 41.79243 12.16871 2657 ft 195 kts 275°
2026-02-17 14:36 41.79231 12.14933 3131 ft 220 kts 272°
2026-02-17 14:37 41.79170 12.12816 3690 ft 241 kts 271°
2026-02-17 14:37 41.79089 12.10488 4383 ft 256 kts 271°
2026-02-17 14:37 41.79022 12.08095 5360 ft 258 kts 272°
2026-02-17 14:37 41.79004 12.05671 6335 ft 262 kts 274°
2026-02-17 14:38 41.79007 12.03223 7317 ft 262 kts 274°
2026-02-17 14:38 41.79010 12.00784 8351 ft 263 kts 274°
2026-02-17 14:38 41.79012 11.98318 9308 ft 266 kts 274°
2026-02-17 14:39 41.79007 11.93210 10621 ft 293 kts 274°
2026-02-17 14:39 41.79004 11.90380 10988 ft 313 kts 274°
2026-02-17 14:39 41.79001 11.87439 11782 ft 316 kts 276°
2026-02-17 14:39 41.79289 11.84557 12739 ft 310 kts 288°
2026-02-17 14:40 41.80022 11.81842 13594 ft 310 kts 299°
2026-02-17 14:40 41.81102 11.79349 14401 ft 309 kts 304°
2026-02-17 14:40 41.83307 11.74412 16035 ft 312 kts 304°
2026-02-17 14:41 41.84415 11.71908 16833 ft 313 kts 305°
2026-02-17 14:41 41.85528 11.69390 17629 ft 314 kts 305°
2026-02-17 14:41 41.86645 11.66860 18350 ft 315 kts 306°
2026-02-17 14:41 41.87750 11.64349 19206 ft 310 kts 306°
2026-02-17 14:42 41.88840 11.61870 20016 ft 307 kts 307°
2026-02-17 14:42 41.90010 11.59494 20782 ft 303 kts 312°
2026-02-17 14:42 41.91343 11.57338 21551 ft 298 kts 316°
2026-02-17 14:43 41.94195 11.53334 23079 ft 295 kts 317°
2026-02-17 14:43 41.95603 11.51338 23733 ft 295 kts 317°
2026-02-17 14:43 41.97020 11.49330 24188 ft 298 kts 317°
2026-02-17 14:43 41.98452 11.47299 24657 ft 300 kts 317°
2026-02-17 14:44 41.99896 11.45251 25138 ft 302 kts 317°
2026-02-17 14:44 42.01347 11.43190 25596 ft 305 kts 317°
2026-02-17 14:44 42.02808 11.41115 26064 ft 306 kts 317°
2026-02-17 14:44 42.04278 11.39025 26508 ft 309 kts 317°
2026-02-17 14:45 42.05762 11.36916 26916 ft 312 kts 317°
2026-02-17 14:45 42.07239 11.34813 27331 ft 314 kts 317°
2026-02-17 14:45 42.08742 11.32673 27750 ft 316 kts 317°
2026-02-17 14:45 42.10256 11.30515 28144 ft 318 kts 317°
2026-02-17 14:46 42.11789 11.28333 28374 ft 323 kts 317°
2026-02-17 14:46 42.13335 11.26128 28769 ft 324 kts 317°
2026-02-17 14:46 42.14890 11.23907 29153 ft 326 kts 317°
2026-02-17 14:47 42.18026 11.19422 29858 ft 330 kts 317°
2026-02-17 14:47 42.19606 11.17159 30166 ft 332 kts 317°
2026-02-17 14:47 42.21172 11.14916 30486 ft 334 kts 317°
2026-02-17 14:47 42.22769 11.12627 30795 ft 335 kts 317°
2026-02-17 14:48 42.24372 11.10326 31154 ft 335 kts 317°
2026-02-17 14:48 42.25966 11.08036 31549 ft 335 kts 316°
2026-02-17 14:48 42.27557 11.05749 31963 ft 333 kts 316°
2026-02-17 14:48 42.29144 11.03465 32384 ft 332 kts 316°
2026-02-17 14:49 42.30719 11.01196 32790 ft 330 kts 316°
2026-02-17 14:49 42.32290 10.98932 33180 ft 329 kts 316°
2026-02-17 14:49 42.33872 10.96707 33558 ft 327 kts 318°
2026-02-17 14:49 42.35552 10.94652 33822 ft 325 kts 321°
2026-02-17 14:50 42.37337 10.92783 33850 ft 323 kts 324°
2026-02-17 14:50 42.41150 10.89626 33857 ft 324 kts 330°
2026-02-17 14:51 42.47212 10.85552 33865 ft 324 kts 331°
2026-02-17 14:51 42.51249 10.82827 33888 ft 324 kts 331°
2026-02-17 14:52 42.55282 10.80107 33846 ft 322 kts 331°
2026-02-17 14:52 42.59286 10.77405 33829 ft 320 kts 331°
2026-02-17 14:53 42.63309 10.74685 33851 ft 325 kts 331°
2026-02-17 14:53 42.67349 10.71951 33856 ft 324 kts 331°
2026-02-17 14:54 42.71385 10.69216 33857 ft 324 kts 331°
2026-02-17 14:55 42.77405 10.65127 33856 ft 324 kts 331°
2026-02-17 14:55 42.81437 10.62384 33862 ft 324 kts 331°
2026-02-17 14:56 42.85471 10.59636 33867 ft 324 kts 331°
2026-02-17 14:56 42.89505 10.56883 33843 ft 324 kts 331°
2026-02-17 14:57 42.93537 10.54129 33865 ft 324 kts 330°
2026-02-17 14:57 42.97678 10.51656 33867 ft 327 kts 336°
2026-02-17 14:58 43.02100 10.50022 33874 ft 332 kts 342°
2026-02-17 14:58 43.06644 10.48833 33873 ft 332 kts 342°
2026-02-17 14:59 43.13429 10.47028 33870 ft 332 kts 342°
2026-02-17 14:59 43.17977 10.45827 33873 ft 333 kts 342°
2026-02-17 15:00 43.22522 10.44630 33875 ft 332 kts 342°
2026-02-17 15:00 43.27062 10.43427 33870 ft 332 kts 342°
2026-02-17 15:01 43.30834 10.42427 33860 ft 332 kts 342°
2026-02-17 15:01 43.35370 10.41224 33862 ft 332 kts 342°
2026-02-17 15:02 43.39907 10.40018 33857 ft 332 kts 342°
2026-02-17 15:03 43.46709 10.38208 33855 ft 333 kts 342°
2026-02-17 15:03 43.51256 10.36995 33854 ft 332 kts 342°
2026-02-17 15:04 43.55763 10.35792 33848 ft 332 kts 342°
2026-02-17 15:04 43.60318 10.34571 33829 ft 334 kts 342°
2026-02-17 15:05 43.64879 10.33351 33826 ft 333 kts 342°
2026-02-17 15:05 43.69433 10.32129 33829 ft 333 kts 342°
2026-02-17 15:06 43.73993 10.30904 33844 ft 334 kts 342°
2026-02-17 15:06 43.78555 10.29676 33835 ft 334 kts 342°
2026-02-17 15:07 43.85172 10.27069 33835 ft 329 kts 334°
2026-02-17 15:07 43.89300 10.24370 33830 ft 328 kts 331°
2026-02-17 15:08 43.93399 10.21594 33821 ft 328 kts 331°
2026-02-17 15:08 43.95451 10.20201 33557 ft 328 kts 331°
2026-02-17 15:08 43.97514 10.18795 33309 ft 331 kts 331°
2026-02-17 15:09 43.99589 10.17376 33032 ft 332 kts 331°
2026-02-17 15:09 44.01663 10.15954 32768 ft 332 kts 330°
2026-02-17 15:09 44.03665 10.14351 32501 ft 332 kts 325°
2026-02-17 15:09 44.05514 10.12431 32049 ft 333 kts 321°
2026-02-17 15:10 44.07216 10.10197 31172 ft 341 kts 316°
2026-02-17 15:10 44.08711 10.07680 30510 ft 343 kts 311°
2026-02-17 15:10 44.10038 10.04952 30017 ft 338 kts 310°
2026-02-17 15:11 44.12642 9.99632 29163 ft 330 kts 310°
2026-02-17 15:11 44.13953 9.96969 28932 ft 334 kts 310°
2026-02-17 15:11 44.15258 9.94304 28649 ft 331 kts 309°
2026-02-17 15:11 44.16546 9.91661 28366 ft 329 kts 310°
2026-02-17 15:12 44.17833 9.89019 28094 ft 329 kts 309°
2026-02-17 15:12 44.19119 9.86377 27815 ft 329 kts 309°
2026-02-17 15:12 44.20403 9.83738 27269 ft 329 kts 309°
2026-02-17 15:12 44.21687 9.81106 26725 ft 326 kts 309°
2026-02-17 15:13 44.22949 9.78505 26179 ft 322 kts 309°
2026-02-17 15:13 44.24198 9.75924 25627 ft 319 kts 309°
2026-02-17 15:13 44.25437 9.73364 25011 ft 318 kts 308°
2026-02-17 15:13 44.26664 9.70823 24517 ft 314 kts 309°
2026-02-17 15:14 44.27881 9.68307 23962 ft 311 kts 309°
2026-02-17 15:14 44.29090 9.65805 23407 ft 309 kts 309°
2026-02-17 15:14 44.30293 9.63329 22841 ft 305 kts 310°
2026-02-17 15:15 44.33078 9.59086 21790 ft 293 kts 321°
2026-02-17 15:15 44.34696 9.57386 21298 ft 289 kts 326°
2026-02-17 15:15 44.36411 9.55951 20783 ft 284 kts 329°
2026-02-17 15:15 44.38113 9.54564 20278 ft 282 kts 328°
2026-02-17 15:16 44.39809 9.53167 19960 ft 288 kts 328°
2026-02-17 15:16 44.41580 9.51704 19867 ft 307 kts 328°
2026-02-17 15:16 44.43426 9.50186 19818 ft 307 kts 328°
2026-02-17 15:16 44.45287 9.48728 19407 ft 308 kts 334°
2026-02-17 15:17 44.47387 9.47869 18415 ft 323 kts 343°
2026-02-17 15:17 44.49634 9.47230 17425 ft 332 kts 345°
2026-02-17 15:17 44.51903 9.46636 16804 ft 330 kts 346°
2026-02-17 15:17 44.54125 9.46070 16451 ft 318 kts 346°
2026-02-17 15:18 44.56271 9.45521 16097 ft 309 kts 346°
2026-02-17 15:18 44.58375 9.44966 15556 ft 307 kts 346°
2026-02-17 15:18 44.60461 9.44408 15054 ft 304 kts 346°
2026-02-17 15:19 44.64618 9.43285 14004 ft 303 kts 347°
2026-02-17 15:19 44.66685 9.42729 13438 ft 302 kts 348°
2026-02-17 15:19 44.68745 9.42177 12915 ft 300 kts 348°
2026-02-17 15:19 44.70786 9.41633 12403 ft 298 kts 348°
2026-02-17 15:20 44.72794 9.41098 11883 ft 297 kts 348°
2026-02-17 15:20 44.74821 9.40554 11364 ft 296 kts 348°
2026-02-17 15:20 44.76842 9.40014 10976 ft 297 kts 348°
2026-02-17 15:20 44.78935 9.39451 10864 ft 309 kts 348°
2026-02-17 15:21 44.81067 9.38878 10855 ft 307 kts 348°
2026-02-17 15:21 44.83097 9.38335 10843 ft 293 kts 348°
2026-02-17 15:21 44.85049 9.37813 10782 ft 279 kts 348°
2026-02-17 15:21 44.86927 9.37309 10610 ft 270 kts 348°
2026-02-17 15:22 44.88738 9.36822 10288 ft 262 kts 348°
2026-02-17 15:22 44.90533 9.36339 9685 ft 262 kts 348°
2026-02-17 15:22 44.92349 9.35849 8921 ft 268 kts 347°
2026-02-17 15:23 44.96004 9.34872 7677 ft 267 kts 347°
2026-02-17 15:23 44.97824 9.34381 7116 ft 266 kts 347°
2026-02-17 15:23 44.99638 9.33892 6540 ft 265 kts 346°
2026-02-17 15:23 45.01435 9.33405 6036 ft 260 kts 347°
2026-02-17 15:24 45.03215 9.32923 5584 ft 261 kts 346°
2026-02-17 15:24 45.05006 9.32437 5159 ft 262 kts 346°
2026-02-17 15:24 45.06771 9.31961 4983 ft 253 kts 346°
2026-02-17 15:24 45.08469 9.31590 4912 ft 242 kts 353°
2026-02-17 15:25 45.10109 9.31427 4826 ft 231 kts 352°
2026-02-17 15:25 45.11676 9.31262 4720 ft 221 kts 352°
2026-02-17 15:25 45.13178 9.31099 4473 ft 219 kts 352°
2026-02-17 15:25 45.14697 9.30929 4176 ft 219 kts 352°
2026-02-17 15:26 45.16214 9.30759 3897 ft 218 kts 352°
2026-02-17 15:26 45.17718 9.30593 3620 ft 217 kts 352°
2026-02-17 15:26 45.19222 9.30431 3356 ft 216 kts 352°
2026-02-17 15:27 45.22199 9.30099 2982 ft 211 kts 353°
2026-02-17 15:27 45.23681 9.29939 2969 ft 210 kts 353°
2026-02-17 15:27 45.25082 9.29792 3021 ft 194 kts 353°
2026-02-17 15:27 45.26407 9.29648 3034 ft 193 kts 353°
2026-02-17 15:28 45.27753 9.29504 3025 ft 193 kts 354°
2026-02-17 15:28 45.29095 9.29360 3028 ft 194 kts 354°
2026-02-17 15:28 45.30442 9.29216 2981 ft 195 kts 354°
2026-02-17 15:28 45.31800 9.29071 2721 ft 196 kts 354°
2026-02-17 15:29 45.33142 9.28927 2489 ft 186 kts 354°
2026-02-17 15:29 45.34382 9.28795 2201 ft 172 kts 354°
2026-02-17 15:29 45.35538 9.28671 1963 ft 160 kts 354°
2026-02-17 15:29 45.36613 9.28556 1748 ft 149 kts 353°
2026-02-17 15:30 45.37601 9.28450 1559 ft 137 kts 353°
2026-02-17 15:30 45.38538 9.28349 1375 ft 135 kts 353°
2026-02-17 15:30 45.39457 9.28251 1181 ft 134 kts 353°
2026-02-17 15:31 45.41270 9.28057 817 ft 126 kts 353°
2026-02-17 15:31 45.42166 9.27942 651 ft 132 kts 354°
2026-02-17 15:31 45.43061 9.27857 483 ft 127 kts 353°
2026-02-17 15:31 45.43930 9.27767 359 ft 120 kts 353°
2026-02-17 15:32 45.44526 9.27705 361 ft 44 kts 357°
2026-02-17 15:32 45.44821 9.27675 361 ft 41 kts 356°
2026-02-17 15:32 45.45092 9.27648 361 ft 36 kts 355°
2026-02-17 15:32 45.45300 9.27656 361 ft 26 kts 19°
2026-02-17 15:33 45.45419 9.27740 363 ft 14 kts 33°
2026-02-17 15:33 45.45504 9.27814 366 ft 15 kts
2026-02-17 15:33 45.45612 9.27816 362 ft 16 kts
2026-02-17 15:33 45.45729 9.27817 362 ft 18 kts
2026-02-17 15:34 45.45845 9.27819 362 ft 14 kts
2026-02-17 15:34 45.45905 9.27865 364 ft 10 kts 75°
2026-02-17 15:34 45.45900 9.27966 362 ft 8 kts 126°
2026-02-17 15:35 45.45782 9.27989 365 ft 6 kts 156°
2026-02-17 15:35 45.45769 9.28054 362 ft 3 kts 89°
2026-02-17 15:35 45.45769 9.28075 363 ft 0 kts 89°
2026-02-17 15:47 45.45769 9.28074 360 ft 0 kts 89°
2026-02-17 15:59 45.45769 9.28073 360 ft 0 kts 89°